contact:dominique.lefevre@mio.osupytheas.fr, maurice.libes@osupytheas.fr, didier.mallarino@osupytheas.fr
Project:EMSO http://www.emso-fr.org/EMSO-France
Depth: 2436.0 m
Title:EMSO Ligure Ouest : Data MII capteur AQUADOPP
Date,Latitude,Longitude,X_East,Y_North,Z_Up,Amplitude_X,Amplitude_Y,Amplitude_Z,Batterie,SoundSpeed,Heading,Pitch,Roll,Pressure,TIS,Speed,Direction
, degrees North, degrees East, m.s-1, m.s-1,m.s-1, 1, 1, 1, Volt, m.s-1, degree, degree, degree, dbar, degree_C, m.s-1, degree
2019-07-28T00:01:44,42.805,6.029,0.031,-0.023,-0.007,103.0,108.0,99.0,13.3,1505.3,326.0,-0.7,1.8,2470.036,13.32,0.038,126.6
2019-07-28T00:04:45,42.805,6.029,0.044,-0.029,-0.017,104.0,106.0,99.0,13.3,1505.3,327.8,-0.7,1.8,2470.044,13.32,0.052,123.4
2019-07-28T00:07:46,42.805,6.029,0.045,-0.012,-0.003,104.0,108.0,98.0,13.4,1505.3,327.5,-0.7,1.9,2470.08,13.32,0.046,104.9
2019-07-28T00:10:47,42.805,6.029,0.02,-0.006,-0.024,103.0,111.0,99.0,13.4,1505.3,325.8,-0.7,1.9,2470.036,13.32,0.02,106.7
2019-07-28T00:13:48,42.805,6.029,0.03,0.013,-0.01,102.0,107.0,100.0,13.3,1505.3,325.6,-0.7,1.8,2470.052,13.32,0.032,66.6
2019-07-28T00:16:49,42.805,6.029,0.045,0.003,0.002,103.0,108.0,100.0,13.3,1505.3,324.7,-0.7,1.9,2470.059,13.32,0.045,86.2
2019-07-28T00:19:50,42.805,6.029,0.048,-0.008,-0.022,102.0,106.0,100.0,13.4,1505.3,325.4,-0.8,1.9,2470.05,13.32,0.048,99.5
2019-07-28T00:22:51,42.805,6.029,0.052,0.002,-0.02,103.0,108.0,100.0,13.4,1505.3,323.4,-0.7,1.8,2470.051,13.32,0.052,87.8
2019-07-28T00:25:52,42.805,6.029,0.058,-0.005,0.018,103.0,107.0,99.0,13.4,1505.3,324.7,-0.7,1.8,2470.062,13.32,0.058,94.9
2019-07-28T00:28:53,42.805,6.029,0.056,-0.02,-0.039,104.0,106.0,100.0,13.3,1505.3,323.3,-0.7,1.8,2470.062,13.32,0.059,109.6
2019-07-28T00:31:54,42.805,6.029,0.063,-0.01,-0.014,104.0,105.0,101.0,13.4,1505.3,327.9,-0.7,1.8,2470.035,13.32,0.063,99.0
2019-07-28T00:34:55,42.805,6.029,0.042,-0.022,-0.011,104.0,105.0,99.0,13.3,1505.3,324.3,-0.7,1.8,2470.048,13.32,0.047,117.6
2019-07-28T00:37:56,42.805,6.029,0.039,-0.004,-0.004,103.0,105.0,100.0,13.3,1505.3,327.8,-0.8,1.8,2470.036,13.32,0.039,95.9
2019-07-28T00:40:57,42.805,6.029,0.047,-0.02,-0.013,103.0,106.0,100.0,13.4,1505.3,327.8,-0.7,1.8,2470.013,13.32,0.051,113.0
2019-07-28T00:43:58,42.805,6.029,0.03,-0.007,0.012,103.0,104.0,100.0,13.4,1505.3,326.1,-0.7,1.9,2470.071,13.32,0.03,103.1
2019-07-28T00:46:59,42.805,6.029,0.041,0.003,-0.011,104.0,105.0,101.0,13.4,1505.3,325.7,-0.7,1.8,2470.067,13.32,0.041,85.8
2019-07-28T00:50:00,42.805,6.029,0.024,-0.016,0.022,104.0,107.0,100.0,13.4,1505.3,323.8,-0.7,1.8,2470.071,13.32,0.028,123.7
2019-07-28T00:53:01,42.805,6.029,0.058,-0.017,0.012,102.0,106.0,100.0,13.4,1505.3,322.9,-0.7,1.8,2470.086,13.32,0.06,106.3
2019-07-28T00:56:02,42.805,6.029,0.046,-0.016,-0.003,104.0,106.0,99.0,13.4,1505.3,324.8,-0.7,1.8,2470.037,13.32,0.048,109.2
2019-07-28T00:59:03,42.805,6.029,0.056,-0.019,-0.049,103.0,107.0,100.0,13.3,1505.3,327.9,-0.7,1.8,2470.044,13.32,0.059,108.7
2019-07-28T01:02:04,42.805,6.029,0.037,-0.035,0.004,103.0,104.0,99.0,13.4,1505.3,328.2,-0.7,1.8,2470.045,13.32,0.05,133.4
2019-07-28T01:05:05,42.805,6.029,0.057,-0.035,-0.015,103.0,106.0,100.0,13.3,1505.3,326.3,-0.7,1.8,2470.084,13.32,0.066,121.6
2019-07-28T01:08:06,42.805,6.029,0.051,-0.009,-0.02,105.0,108.0,100.0,13.4,1505.3,327.2,-0.7,1.8,2470.111,13.32,0.051,100.0
2019-07-28T01:11:07,42.805,6.029,0.027,-0.02,0.008,106.0,111.0,100.0,13.4,1505.3,324.4,-0.7,1.8,2470.079,13.32,0.033,126.5
2019-07-28T01:14:08,42.805,6.029,0.049,-0.029,-0.001,104.0,107.0,101.0,13.4,1505.3,327.9,-0.7,1.8,2470.036,13.32,0.056,120.6
2019-07-28T01:17:09,42.805,6.029,0.047,-0.017,0.007,103.0,111.0,100.0,13.4,1505.3,326.4,-0.7,1.8,2470.047,13.32,0.049,109.9
2019-07-28T01:20:10,42.805,6.029,0.048,-0.013,-0.014,102.0,109.0,100.0,13.4,1505.3,327.6,-0.7,1.8,2470.062,13.32,0.049,105.2
2019-07-28T01:23:11,42.805,6.029,0.047,-0.024,-0.018,104.0,108.0,99.0,13.4,1505.3,327.0,-0.7,1.8,2470.083,13.32,0.052,117.0
2019-07-28T01:26:12,42.805,6.029,0.024,-0.021,-0.04,105.0,105.0,101.0,13.4,1505.3,326.4,-0.7,1.9,2470.08,13.32,0.031,131.2
2019-07-28T01:29:13,42.805,6.029,0.035,-0.024,-0.031,103.0,105.0,100.0,13.3,1505.3,325.2,-0.7,1.9,2470.039,13.32,0.042,124.4
2019-07-28T01:32:14,42.805,6.029,0.034,-0.012,0.019,104.0,105.0,102.0,13.4,1505.3,324.6,-0.7,1.9,2470.047,13.32,0.036,109.4
2019-07-28T01:35:15,42.805,6.029,0.043,-0.001,0.004,106.0,107.0,100.0,13.4,1505.3,327.1,-0.7,1.8,2470.025,13.32,0.043,91.3
2019-07-28T01:38:16,42.805,6.029,-0.01,0.002,-0.004,104.0,109.0,100.0,13.4,1505.3,327.0,-0.8,1.8,2470.058,13.32,0.01,281.3
2019-07-28T01:41:17,42.805,6.029,0.033,0.0,-0.01,104.0,111.0,99.0,13.4,1505.3,326.7,-0.7,1.8,2470.077,13.32,0.033,90.0
2019-07-28T01:44:18,42.805,6.029,0.041,-0.011,-0.025,103.0,111.0,99.0,13.3,1505.3,323.9,-0.7,1.9,2470.132,13.32,0.042,105.0
2019-07-28T01:47:19,42.805,6.029,0.038,-0.007,-0.014,103.0,110.0,100.0,13.4,1505.3,324.7,-0.7,1.9,2470.086,13.32,0.038,100.4
2019-07-28T01:50:20,42.805,6.029,0.046,-0.007,-0.004,105.0,110.0,100.0,13.4,1505.3,324.8,-0.7,1.8,2470.099,13.32,0.046,98.7
2019-07-28T01:53:21,42.805,6.029,0.037,-0.012,-0.003,103.0,107.0,102.0,13.4,1505.3,326.4,-0.7,1.8,2470.062,13.32,0.038,108.0
2019-07-28T01:56:22,42.805,6.029,0.039,-0.002,0.007,104.0,106.0,99.0,13.4,1505.3,327.6,-0.7,1.8,2470.066,13.32,0.039,92.9
2019-07-28T01:59:23,42.805,6.029,0.015,-0.021,0.024,104.0,108.0,101.0,13.4,1505.3,327.9,-0.7,1.8,2470.084,13.32,0.025,144.5
2019-07-28T02:02:24,42.805,6.029,0.031,0.005,-0.002,102.0,107.0,99.0,13.4,1505.3,327.4,-0.7,1.9,2470.085,13.32,0.031,80.8
2019-07-28T02:05:25,42.805,6.029,0.03,-0.016,-0.018,104.0,107.0,100.0,13.4,1505.3,327.6,-0.7,1.9,2470.076,13.32,0.034,118.1
2019-07-28T02:08:26,42.805,6.029,0.035,-0.008,-0.007,104.0,108.0,99.0,13.4,1505.3,325.8,-0.7,1.8,2470.086,13.32,0.035,102.9
2019-07-28T02:11:27,42.805,6.029,0.026,-0.016,-0.018,103.0,108.0,101.0,13.4,1505.3,328.2,-0.7,1.8,2470.057,13.32,0.03,121.6
2019-07-28T02:14:28,42.805,6.029,0.023,-0.009,0.0,104.0,108.0,100.0,13.3,1505.3,325.5,-0.7,1.8,2470.037,13.32,0.024,111.4
2019-07-28T02:17:29,42.805,6.029,0.033,-0.003,-0.038,103.0,110.0,101.0,13.4,1505.3,326.9,-0.7,1.9,2470.089,13.32,0.033,95.2
2019-07-28T02:20:30,42.805,6.029,0.019,0.006,-0.016,103.0,109.0,98.0,13.4,1505.3,326.0,-0.7,1.8,2470.114,13.32,0.019,72.5
2019-07-28T02:23:31,42.805,6.029,0.035,0.023,-0.024,103.0,110.0,100.0,13.4,1505.3,327.2,-0.7,1.8,2470.069,13.32,0.041,56.7
2019-07-28T02:26:32,42.805,6.029,0.039,-0.014,0.011,102.0,109.0,100.0,13.4,1505.3,326.4,-0.7,1.8,2470.097,13.32,0.041,109.7
2019-07-28T02:29:33,42.805,6.029,0.025,0.019,0.012,104.0,110.0,100.0,13.4,1505.3,325.9,-0.7,1.8,2470.055,13.32,0.031,52.8
2019-07-28T02:32:34,42.805,6.029,0.02,0.011,-0.011,103.0,110.0,99.0,13.4,1505.3,325.2,-0.7,1.8,2470.115,13.32,0.022,61.2
2019-07-28T02:35:35,42.805,6.029,0.014,0.013,-0.013,102.0,108.0,100.0,13.3,1505.3,324.1,-0.7,1.9,2470.109,13.32,0.019,47.1
2019-07-28T02:38:36,42.805,6.029,0.013,-0.005,-0.026,102.0,108.0,99.0,13.4,1505.3,324.9,-0.7,1.8,2470.106,13.32,0.013,111.0
2019-07-28T02:41:37,42.805,6.029,0.036,0.006,-0.027,104.0,111.0,99.0,13.4,1505.3,326.4,-0.7,1.8,2470.098,13.32,0.036,80.5
2019-07-28T02:44:38,42.805,6.029,0.025,0.003,-0.015,104.0,110.0,100.0,13.4,1505.3,326.8,-0.7,1.8,2470.066,13.32,0.025,83.2
2019-07-28T02:47:39,42.805,6.029,0.022,-0.014,-0.021,105.0,111.0,99.0,13.4,1505.3,323.6,-0.7,1.8,2470.077,13.32,0.026,122.5
2019-07-28T02:50:40,42.805,6.029,0.04,0.001,-0.024,103.0,110.0,100.0,13.3,1505.3,323.8,-0.7,1.8,2470.059,13.32,0.04,88.6
2019-07-28T02:53:41,42.805,6.029,0.038,0.018,-0.012,104.0,110.0,99.0,13.4,1505.3,326.2,-0.7,1.8,2470.147,13.32,0.042,64.7
2019-07-28T02:56:42,42.805,6.029,0.028,0.008,-0.017,103.0,108.0,99.0,13.3,1505.3,326.2,-0.7,1.8,2470.086,13.32,0.029,74.1
2019-07-28T02:59:43,42.805,6.029,0.025,0.015,-0.015,103.0,110.0,100.0,13.4,1505.3,325.2,-0.7,1.9,2470.117,13.32,0.029,59.0
2019-07-28T03:02:44,42.805,6.029,0.013,0.013,0.01,103.0,109.0,100.0,13.3,1505.3,327.5,-0.7,1.8,2470.094,13.32,0.018,45.0
2019-07-28T03:05:45,42.805,6.029,0.033,0.009,-0.039,103.0,108.0,99.0,13.4,1505.3,328.3,-0.8,1.8,2470.08,13.32,0.034,74.7
2019-07-28T03:08:46,42.805,6.029,0.018,0.003,-0.058,103.0,110.0,99.0,13.4,1505.3,325.7,-0.7,1.9,2470.08,13.32,0.018,80.5
2019-07-28T03:11:47,42.805,6.029,0.042,0.028,0.0,104.0,111.0,99.0,13.3,1505.3,326.2,-0.7,1.9,2470.099,13.32,0.05,56.3
2019-07-28T03:14:48,42.805,6.029,0.041,0.006,-0.008,104.0,113.0,99.0,13.4,1505.3,325.7,-0.7,1.9,2470.124,13.32,0.041,81.7
2019-07-28T03:17:49,42.805,6.029,0.024,0.012,-0.019,104.0,111.0,99.0,13.4,1505.3,324.7,-0.7,1.8,2470.096,13.32,0.026,63.4
2019-07-28T03:20:50,42.805,6.029,0.046,0.01,-0.001,102.0,113.0,100.0,13.4,1505.3,327.5,-0.7,1.8,2470.097,13.32,0.047,77.7
2019-07-28T03:23:51,42.805,6.029,0.028,0.012,0.003,102.0,111.0,101.0,13.4,1505.3,324.0,-0.7,1.8,2470.079,13.32,0.03,66.8
2019-07-28T03:26:52,42.805,6.029,0.036,0.01,-0.01,102.0,112.0,99.0,13.4,1505.3,324.5,-0.7,1.8,2470.099,13.32,0.037,74.5
2019-07-28T03:29:53,42.805,6.029,0.038,0.021,-0.023,103.0,111.0,99.0,13.4,1505.3,324.3,-0.7,1.8,2470.077,13.32,0.043,61.1
2019-07-28T03:32:54,42.805,6.029,0.052,-0.011,-0.016,102.0,110.0,100.0,13.4,1505.3,326.1,-0.7,1.8,2470.096,13.32,0.053,101.9
2019-07-28T03:35:55,42.805,6.029,0.026,0.025,-0.024,104.0,111.0,99.0,13.4,1505.3,324.4,-0.7,1.9,2470.092,13.32,0.036,46.1
2019-07-28T03:38:56,42.805,6.029,0.026,0.008,0.033,104.0,110.0,100.0,13.4,1505.3,324.7,-0.7,1.8,2470.078,13.32,0.027,72.9
2019-07-28T03:41:57,42.805,6.029,0.065,0.004,-0.008,102.0,111.0,100.0,13.3,1505.3,328.1,-0.7,1.9,2470.079,13.32,0.065,86.5
2019-07-28T03:44:58,42.805,6.029,0.004,0.011,-0.036,104.0,110.0,99.0,13.3,1505.3,326.2,-0.7,1.8,2470.055,13.32,0.011,20.0
2019-07-28T03:47:59,42.805,6.029,0.023,0.006,-0.01,103.0,113.0,99.0,13.3,1505.3,326.7,-0.7,1.9,2470.087,13.32,0.023,75.4
2019-07-28T03:51:00,42.805,6.029,0.06,0.025,-0.014,103.0,113.0,99.0,13.4,1505.3,326.8,-0.7,1.8,2470.054,13.32,0.064,67.4
2019-07-28T03:54:01,42.805,6.029,0.006,0.007,-0.022,103.0,112.0,99.0,13.4,1505.3,326.0,-0.7,1.8,2470.088,13.32,0.009,40.6
2019-07-28T03:57:02,42.805,6.029,0.049,0.005,0.002,104.0,113.0,100.0,13.4,1505.3,324.7,-0.7,1.8,2470.096,13.32,0.049,84.2
2019-07-28T04:00:03,42.805,6.029,0.032,0.005,-0.009,103.0,114.0,99.0,13.4,1505.3,327.4,-0.7,1.9,2470.097,13.32,0.032,81.1
2019-07-28T04:03:04,42.805,6.029,0.017,-0.008,-0.045,103.0,114.0,99.0,13.4,1505.3,326.4,-0.7,1.8,2470.089,13.32,0.018,115.2
2019-07-28T04:06:05,42.805,6.029,0.01,0.008,-0.051,104.0,111.0,100.0,13.4,1505.3,322.9,-0.7,1.8,2470.13,13.32,0.012,51.3
2019-07-28T04:09:06,42.805,6.029,0.011,0.021,-0.024,104.0,112.0,99.0,13.3,1505.3,322.9,-0.7,1.8,2470.064,13.32,0.023,27.6
2019-07-28T04:12:07,42.805,6.029,-0.003,0.0,-0.034,104.0,112.0,100.0,13.4,1505.3,324.3,-0.7,1.8,2470.058,13.32,0.003,270.0
2019-07-28T04:15:08,42.805,6.029,0.04,0.0,-0.01,104.0,114.0,99.0,13.3,1505.3,324.6,-0.7,1.8,2470.122,13.32,0.04,90.0
2019-07-28T04:18:09,42.805,6.029,0.032,0.015,-0.023,103.0,113.0,99.0,13.3,1505.3,326.3,-0.7,1.8,2470.094,13.32,0.035,64.9
2019-07-28T04:21:10,42.805,6.029,0.01,0.009,-0.034,102.0,114.0,100.0,13.4,1505.3,325.4,-0.7,1.8,2470.11,13.32,0.013,48.0
2019-07-28T04:24:11,42.805,6.029,0.017,0.009,-0.029,105.0,113.0,98.0,13.4,1505.3,325.7,-0.8,1.8,2470.082,13.32,0.019,62.1
2019-07-28T04:27:12,42.805,6.029,0.037,0.029,-0.028,104.0,116.0,99.0,13.3,1505.3,326.9,-0.7,1.9,2470.091,13.32,0.047,51.9
2019-07-28T04:30:13,42.805,6.029,0.05,0.006,-0.002,103.0,115.0,101.0,13.4,1505.3,325.0,-0.7,1.8,2470.09,13.32,0.05,83.2
2019-07-28T04:33:14,42.805,6.029,0.026,0.022,-0.052,103.0,116.0,100.0,13.3,1505.3,325.7,-0.7,1.9,2470.123,13.32,0.034,49.8
2019-07-28T04:36:15,42.805,6.029,0.027,0.015,-0.011,105.0,118.0,98.0,13.3,1505.3,326.8,-0.7,1.8,2470.069,13.32,0.03,60.9
2019-07-28T04:39:16,42.805,6.029,-0.008,0.016,-0.028,104.0,117.0,99.0,13.4,1505.3,326.5,-0.7,1.8,2470.111,13.32,0.017,333.4
2019-07-28T04:42:17,42.805,6.029,0.026,0.023,0.01,104.0,115.0,98.0,13.4,1505.3,324.4,-0.8,1.8,2470.094,13.32,0.034,48.5
2019-07-28T04:45:18,42.805,6.029,0.016,0.009,-0.014,104.0,116.0,99.0,13.3,1505.3,328.0,-0.7,1.8,2470.131,13.32,0.018,60.6
2019-07-28T04:48:19,42.805,6.029,0.007,0.027,-0.005,105.0,114.0,101.0,13.4,1505.3,324.5,-0.7,1.8,2470.051,13.32,0.027,14.5
2019-07-28T04:51:20,42.805,6.029,0.015,0.039,-0.02,103.0,116.0,100.0,13.3,1505.3,326.9,-0.7,1.8,2470.073,13.32,0.041,21.0
2019-07-28T04:54:21,42.805,6.029,0.021,0.031,-0.027,105.0,116.0,100.0,13.4,1505.3,327.2,-0.8,1.8,2470.061,13.32,0.037,34.1
2019-07-28T04:57:22,42.805,6.029,0.024,0.045,-0.038,103.0,114.0,99.0,13.3,1505.3,324.2,-0.7,1.8,2470.11,13.32,0.051,28.1
2019-07-28T05:00:23,42.805,6.029,0.009,0.024,-0.018,103.0,116.0,99.0,13.3,1505.3,323.3,-0.7,1.8,2470.064,13.32,0.025,20.6
2019-07-28T05:03:24,42.805,6.029,-0.001,0.006,-0.014,103.0,115.0,100.0,13.4,1505.3,325.4,-0.7,1.8,2470.13,13.32,0.006,350.5
2019-07-28T05:06:25,42.805,6.029,-0.002,0.019,-0.045,103.0,119.0,100.0,13.4,1505.3,325.6,-0.7,1.8,2470.068,13.32,0.019,354.0
2019-07-28T05:09:26,42.805,6.029,-0.003,0.02,-0.041,103.0,118.0,99.0,13.4,1505.3,324.8,-0.8,1.8,2470.12,13.32,0.02,351.5
2019-07-28T05:12:27,42.805,6.029,0.027,0.018,-0.031,103.0,117.0,100.0,13.3,1505.3,327.1,-0.7,1.8,2470.06,13.32,0.032,56.3
2019-07-28T05:15:28,42.805,6.029,-0.005,0.013,-0.012,106.0,116.0,99.0,13.3,1505.3,326.5,-0.7,1.8,2470.054,13.32,0.013,339.0
2019-07-28T05:18:29,42.805,6.029,0.008,0.016,-0.051,103.0,117.0,100.0,13.4,1505.3,327.0,-0.7,1.8,2470.043,13.32,0.017,26.6
2019-07-28T05:21:30,42.805,6.029,-0.005,0.032,-0.02,104.0,117.0,99.0,13.3,1505.3,323.8,-0.7,1.8,2470.08,13.32,0.032,351.1
2019-07-28T05:24:31,42.805,6.029,0.008,0.005,-0.037,103.0,117.0,99.0,13.3,1505.3,326.0,-0.7,1.8,2470.101,13.32,0.009,58.0
2019-07-28T05:27:32,42.805,6.029,0.031,0.024,0.006,104.0,117.0,101.0,13.4,1505.3,324.8,-0.7,1.9,2470.107,13.32,0.039,52.3
2019-07-28T05:30:33,42.805,6.029,0.021,0.007,-0.025,103.0,119.0,100.0,13.4,1505.3,327.6,-0.7,1.8,2470.083,13.32,0.022,71.6
2019-07-28T05:33:34,42.805,6.029,0.008,0.019,-0.044,103.0,117.0,100.0,13.3,1505.3,325.5,-0.7,1.8,2470.063,13.32,0.02,22.8
2019-07-28T05:36:35,42.805,6.029,0.015,0.014,-0.034,104.0,119.0,100.0,13.3,1505.3,325.2,-0.7,1.8,2470.104,13.32,0.02,47.0
2019-07-28T05:39:36,42.805,6.029,0.018,0.02,-0.019,103.0,119.0,99.0,13.3,1505.3,325.6,-0.7,1.8,2470.1,13.32,0.026,42.0
2019-07-28T05:42:37,42.805,6.029,0.033,0.004,-0.044,104.0,117.0,99.0,13.4,1505.3,324.3,-0.7,1.8,2470.122,13.32,0.033,83.1
2019-07-28T05:45:38,42.805,6.029,0.011,0.006,-0.03,104.0,117.0,99.0,13.3,1505.3,328.2,-0.7,1.8,2470.084,13.32,0.012,61.4
2019-07-28T05:48:39,42.805,6.029,0.021,0.001,-0.01,103.0,117.0,99.0,13.4,1505.3,327.7,-0.7,1.9,2470.076,13.32,0.021,87.3
2019-07-28T05:51:40,42.805,6.029,0.03,0.039,-0.033,105.0,119.0,99.0,13.4,1505.3,325.2,-0.7,1.8,2470.092,13.32,0.049,37.6
2019-07-28T05:54:41,42.805,6.029,0.024,0.011,-0.036,105.0,117.0,100.0,13.3,1505.3,327.8,-0.7,1.8,2470.04,13.32,0.026,65.4
2019-07-28T05:57:42,42.805,6.029,0.05,0.026,-0.019,104.0,117.0,101.0,13.3,1505.3,327.4,-0.7,1.8,2470.048,13.32,0.056,62.5
2019-07-28T06:00:43,42.805,6.029,0.021,0.022,-0.05,104.0,119.0,99.0,13.4,1505.3,323.9,-0.7,1.8,2470.077,13.32,0.03,43.7
2019-07-28T06:03:44,42.805,6.029,0.01,0.032,-0.023,103.0,120.0,100.0,13.4,1505.3,324.7,-0.7,1.9,2470.069,13.32,0.033,17.4
2019-07-28T06:06:45,42.805,6.029,0.021,0.028,-0.046,104.0,121.0,100.0,13.4,1505.3,324.1,-0.7,1.9,2470.085,13.32,0.035,36.9
2019-07-28T06:09:46,42.805,6.029,0.038,0.02,-0.029,103.0,119.0,98.0,13.4,1505.3,327.6,-0.7,1.8,2470.05,13.32,0.042,62.2
2019-07-28T06:12:47,42.805,6.029,0.01,0.028,-0.005,104.0,120.0,98.0,13.4,1505.3,324.6,-0.7,1.8,2470.07,13.32,0.029,19.6
2019-07-28T06:15:48,42.805,6.029,0.047,0.027,-0.016,102.0,118.0,100.0,13.4,1505.3,327.4,-0.7,1.9,2470.073,13.32,0.054,60.1
2019-07-28T06:18:49,42.805,6.029,0.029,0.021,-0.054,103.0,121.0,100.0,13.4,1505.3,327.9,-0.8,1.8,2470.098,13.32,0.035,54.1
2019-07-28T06:21:50,42.805,6.029,0.032,0.012,-0.057,104.0,121.0,100.0,13.4,1505.3,324.4,-0.7,1.9,2470.049,13.32,0.034,69.4
2019-07-28T06:24:51,42.805,6.029,0.025,0.027,-0.01,105.0,122.0,97.0,13.4,1505.3,326.5,-0.8,1.9,2470.034,13.32,0.036,42.8
2019-07-28T06:27:52,42.805,6.029,0.0,0.012,-0.034,104.0,121.0,99.0,13.4,1505.3,324.1,-0.7,1.8,2470.06,13.32,0.012,0.0
2019-07-28T06:30:53,42.805,6.029,0.038,0.014,0.009,103.0,120.0,100.0,13.3,1505.3,326.2,-0.7,1.8,2470.073,13.32,0.04,69.8
2019-07-28T06:33:54,42.805,6.029,0.038,0.031,-0.02,104.0,117.0,100.0,13.4,1505.3,327.7,-0.7,1.8,2470.03,13.32,0.049,50.8
2019-07-28T06:36:55,42.805,6.029,0.019,0.006,-0.03,104.0,119.0,100.0,13.4,1505.3,323.5,-0.7,1.9,2470.069,13.32,0.019,72.5
2019-07-28T06:39:56,42.805,6.029,0.024,0.003,-0.021,104.0,118.0,100.0,13.4,1505.3,326.7,-0.7,1.8,2470.008,13.32,0.024,82.9
2019-07-28T06:42:57,42.805,6.029,0.037,0.028,-0.032,104.0,120.0,100.0,13.4,1505.3,326.3,-0.7,1.8,2470.037,13.32,0.046,52.9
2019-07-28T06:45:58,42.805,6.029,0.033,0.004,-0.013,105.0,121.0,99.0,13.3,1505.3,326.4,-0.7,1.9,2470.061,13.32,0.033,83.1
2019-07-28T06:48:59,42.805,6.029,0.032,0.009,-0.039,105.0,119.0,99.0,13.4,1505.3,323.6,-0.7,1.8,2470.07,13.32,0.033,74.3
2019-07-28T06:52:00,42.805,6.029,-0.019,0.017,-0.034,105.0,118.0,99.0,13.4,1505.3,325.8,-0.7,1.8,2470.01,13.32,0.025,311.8
2019-07-28T06:55:01,42.805,6.029,0.011,0.023,-0.029,103.0,117.0,98.0,13.4,1505.3,325.5,-0.7,1.9,2470.045,13.32,0.025,25.6
2019-07-28T06:58:02,42.805,6.029,0.027,0.021,-0.019,103.0,117.0,99.0,13.3,1505.3,327.6,-0.7,1.8,2470.063,13.32,0.034,52.1
2019-07-28T07:01:03,42.805,6.029,0.011,0.024,-0.039,102.0,116.0,100.0,13.4,1505.3,324.4,-0.7,1.8,2470.058,13.32,0.026,24.6
2019-07-28T07:04:04,42.805,6.029,0.035,0.026,-0.028,103.0,121.0,100.0,13.4,1505.3,327.7,-0.8,1.8,2470.007,13.32,0.043,53.4
2019-07-28T07:07:05,42.805,6.029,0.011,0.026,-0.034,104.0,120.0,98.0,13.4,1505.3,325.6,-0.7,1.8,2470.023,13.32,0.028,22.9
2019-07-28T07:10:06,42.805,6.029,0.043,0.021,-0.03,101.0,120.0,100.0,13.4,1505.3,324.8,-0.8,1.8,2470.031,13.32,0.047,64.0
2019-07-28T07:13:07,42.805,6.029,0.038,-0.003,-0.015,103.0,115.0,100.0,13.4,1505.3,326.4,-0.7,1.8,2470.014,13.32,0.038,94.5
2019-07-28T07:16:08,42.805,6.029,0.057,0.02,-0.02,102.0,117.0,99.0,13.3,1505.3,323.2,-0.7,1.8,2470.023,13.32,0.06,70.7
2019-07-28T07:19:09,42.805,6.029,0.015,0.029,-0.05,103.0,119.0,99.0,13.4,1505.3,323.2,-0.8,1.8,2470.02,13.32,0.032,27.4
2019-07-28T07:22:10,42.805,6.029,0.022,0.016,-0.025,102.0,118.0,100.0,13.3,1505.3,324.3,-0.7,1.8,2470.036,13.32,0.027,54.0
2019-07-28T07:25:11,42.805,6.029,0.032,0.029,-0.018,103.0,118.0,100.0,13.4,1505.3,324.6,-0.7,1.8,2470.001,13.32,0.043,47.8
2019-07-28T07:28:12,42.805,6.029,0.028,0.024,-0.01,102.0,118.0,99.0,13.4,1505.3,323.5,-0.7,1.8,2470.044,13.32,0.036,49.4
2019-07-28T07:31:13,42.805,6.029,0.045,0.011,-0.015,103.0,116.0,100.0,13.3,1505.3,326.0,-0.7,1.8,2470.008,13.32,0.046,76.3
2019-07-28T07:34:14,42.805,6.029,0.039,0.014,-0.01,103.0,116.0,100.0,13.4,1505.3,325.1,-0.7,1.8,2470.03,13.32,0.041,70.3
2019-07-28T07:37:15,42.805,6.029,0.012,0.026,-0.005,105.0,118.0,99.0,13.3,1505.3,328.3,-0.7,1.8,2469.997,13.32,0.028,24.8
2019-07-28T07:40:16,42.805,6.029,0.032,0.013,-0.03,103.0,119.0,99.0,13.4,1505.3,323.4,-0.7,1.8,2470.038,13.32,0.034,67.9
2019-07-28T07:43:17,42.805,6.029,0.037,0.018,-0.023,104.0,116.0,99.0,13.3,1505.3,322.7,-0.8,1.8,2470.021,13.32,0.041,64.1
2019-07-28T07:46:18,42.805,6.029,0.031,0.005,-0.028,103.0,119.0,99.0,13.3,1505.3,326.6,-0.7,1.8,2469.973,13.32,0.031,80.8
2019-07-28T07:49:19,42.805,6.029,0.042,0.015,-0.004,103.0,114.0,99.0,13.4,1505.3,326.7,-0.8,1.8,2469.989,13.32,0.044,70.4
2019-07-28T07:52:20,42.805,6.029,-0.005,0.021,-0.025,103.0,118.0,99.0,13.4,1505.3,327.5,-0.7,1.8,2470.024,13.32,0.021,346.6
2019-07-28T07:55:21,42.805,6.029,0.012,0.017,-0.022,104.0,117.0,99.0,13.4,1505.3,324.6,-0.7,1.8,2470.019,13.32,0.02,35.2
2019-07-28T07:58:22,42.805,6.029,0.036,0.028,0.0,102.0,113.0,101.0,13.4,1505.3,323.5,-0.7,1.8,2470.001,13.32,0.045,52.1
2019-07-28T08:01:23,42.805,6.029,0.027,0.011,0.003,104.0,120.0,99.0,13.4,1505.3,328.2,-0.7,1.8,2469.978,13.32,0.029,67.8
2019-07-28T08:04:24,42.805,6.029,0.035,0.004,-0.058,104.0,118.0,99.0,13.4,1505.3,328.3,-0.7,1.8,2469.982,13.32,0.035,83.5
2019-07-28T08:07:25,42.805,6.029,0.035,0.015,-0.034,104.0,120.0,99.0,13.4,1505.3,327.9,-0.7,1.9,2470.042,13.32,0.038,66.8
2019-07-28T08:10:26,42.805,6.029,0.02,0.032,-0.029,102.0,120.0,99.0,13.4,1505.3,328.3,-0.7,1.8,2470.003,13.32,0.037,32.0
2019-07-28T08:13:27,42.805,6.029,0.025,-0.01,-0.047,103.0,118.0,100.0,13.4,1505.3,326.7,-0.7,1.8,2469.98,13.32,0.026,111.8
2019-07-28T08:16:28,42.805,6.029,0.022,-0.001,-0.045,103.0,122.0,99.0,13.4,1505.3,327.3,-0.7,1.8,2470.004,13.32,0.022,92.6
2019-07-28T08:19:29,42.805,6.029,0.042,0.02,-0.024,103.0,121.0,99.0,13.4,1505.3,324.7,-0.7,1.8,2470.003,13.32,0.046,64.5
2019-07-28T08:22:30,42.805,6.029,0.026,-0.008,-0.029,103.0,115.0,100.0,13.4,1505.3,326.0,-0.8,1.8,2470.025,13.32,0.027,107.1
2019-07-28T08:25:31,42.805,6.029,0.03,0.028,-0.024,103.0,119.0,100.0,13.4,1505.3,325.1,-0.7,1.8,2469.978,13.32,0.041,47.0
2019-07-28T08:28:32,42.805,6.029,0.02,0.025,-0.01,103.0,117.0,99.0,13.4,1505.3,325.1,-0.7,1.8,2469.975,13.32,0.032,38.7
2019-07-28T08:31:33,42.805,6.029,0.046,0.012,0.003,103.0,120.0,98.0,13.4,1505.3,328.1,-0.8,1.9,2470.031,13.32,0.047,75.4
2019-07-28T08:34:34,42.805,6.029,0.031,0.028,-0.014,102.0,120.0,100.0,13.4,1505.3,325.3,-0.7,1.9,2469.97,13.32,0.041,47.9
2019-07-28T08:37:35,42.805,6.029,0.046,0.032,-0.024,104.0,121.0,100.0,13.4,1505.3,326.7,-0.7,1.8,2469.935,13.32,0.056,55.2
2019-07-28T08:40:36,42.805,6.029,0.019,0.017,-0.033,103.0,122.0,101.0,13.4,1505.3,328.4,-0.7,1.9,2470.013,13.32,0.025,48.2
2019-07-28T08:43:37,42.805,6.029,0.013,0.0,-0.008,103.0,119.0,100.0,13.3,1505.3,324.3,-0.7,1.8,2470.008,13.32,0.013,90.0
2019-07-28T08:46:38,42.805,6.029,0.05,0.006,-0.019,104.0,120.0,100.0,13.4,1505.3,325.7,-0.7,1.8,2469.974,13.32,0.05,83.2
2019-07-28T08:49:39,42.805,6.029,0.028,0.016,-0.02,103.0,120.0,100.0,13.3,1505.3,326.5,-0.7,1.8,2469.99,13.32,0.032,60.3
2019-07-28T08:52:40,42.805,6.029,0.052,0.022,-0.013,103.0,122.0,98.0,13.4,1505.3,326.1,-0.7,1.9,2469.967,13.32,0.056,67.1
2019-07-28T08:55:41,42.805,6.029,0.034,0.01,-0.025,102.0,118.0,99.0,13.4,1505.3,324.5,-0.7,1.8,2469.955,13.32,0.035,73.6
2019-07-28T08:58:42,42.805,6.029,0.017,0.0,-0.038,103.0,119.0,100.0,13.4,1505.3,327.2,-0.7,1.8,2469.915,13.32,0.017,90.0
2019-07-28T09:01:43,42.805,6.029,0.055,0.011,-0.018,102.0,118.0,100.0,13.3,1505.3,325.7,-0.7,1.8,2470.016,13.32,0.056,78.7
2019-07-28T09:04:44,42.805,6.029,0.041,0.021,-0.064,104.0,119.0,98.0,13.4,1505.3,326.7,-0.7,1.8,2469.965,13.32,0.046,62.9
2019-07-28T09:07:45,42.805,6.029,0.046,0.014,-0.015,103.0,120.0,99.0,13.4,1505.3,323.7,-0.8,1.8,2469.98,13.32,0.048,73.1
2019-07-28T09:10:46,42.805,6.029,0.034,0.021,-0.033,103.0,117.0,100.0,13.4,1505.3,326.4,-0.7,1.8,2469.963,13.32,0.039,58.3
2019-07-28T09:13:47,42.805,6.029,0.014,0.011,-0.037,104.0,119.0,99.0,13.3,1505.3,328.6,-0.7,1.9,2469.976,13.32,0.017,51.8
2019-07-28T09:16:48,42.805,6.029,0.05,0.045,-0.002,103.0,120.0,98.0,13.4,1505.3,328.2,-0.7,1.8,2469.96,13.32,0.067,48.0
2019-07-28T09:19:49,42.805,6.029,0.039,0.019,-0.04,104.0,118.0,99.0,13.4,1505.3,324.5,-0.7,1.8,2469.973,13.32,0.043,64.0
2019-07-28T09:22:50,42.805,6.029,0.026,0.007,-0.045,104.0,115.0,100.0,13.3,1505.3,323.7,-0.7,1.8,2469.962,13.32,0.026,74.9
2019-07-28T09:25:51,42.805,6.029,0.036,0.005,-0.008,104.0,120.0,100.0,13.3,1505.3,326.3,-0.7,1.8,2469.958,13.32,0.036,82.1
2019-07-28T09:28:52,42.805,6.029,0.058,0.03,0.011,103.0,118.0,99.0,13.4,1505.3,324.3,-0.7,1.8,2469.987,13.32,0.065,62.6
2019-07-28T09:31:53,42.805,6.029,0.041,0.007,0.005,102.0,116.0,100.0,13.4,1505.3,328.1,-0.7,1.8,2469.981,13.32,0.041,80.3
2019-07-28T09:34:54,42.805,6.029,0.049,0.014,-0.003,103.0,118.0,100.0,13.3,1505.3,325.0,-0.7,1.9,2469.955,13.32,0.05,74.1
2019-07-28T09:37:55,42.805,6.029,0.051,0.015,-0.027,103.0,115.0,100.0,13.4,1505.3,327.7,-0.7,1.8,2469.912,13.32,0.053,73.6